NN3A-3 Weather Reports


time (UTC)temp
F
wind
direction
speed
knots
gust
knots
rain 1hr
in
rain 24hr
in
rain mn
in
humidity
%
barometer
mb
20260504050412 45 128 0.0 0.0 0.00 0.00 0.00 82 1014.0
20260504045912 44 128 0.0 0.0 0.00 0.00 0.00 82 1014.0
20260504044913 45 128 0.0 0.0 0.00 0.00 0.00 83 1014.0
20260504044413 44 128 0.0 0.0 0.00 0.00 0.00 83 1014.0
20260504043413 44 128 0.0 0.0 0.00 0.00 0.00 84 1014.0
20260504042914 45 128 0.0 0.0 0.00 0.00 0.00 84 1014.0
20260504042414 44 128 0.0 0.0 0.00 0.00 0.00 83 1014.0
20260504041914 45 128 0.0 0.0 0.00 0.00 0.00 83 1014.0
20260504041414 46 128 0.0 0.0 0.00 0.00 0.00 83 1014.0
20260504040914 44 128 0.0 0.0 0.00 0.00 0.00 83 1014.0
20260504040414 45 128 0.0 0.0 0.00 0.00 0.00 83 1014.4
20260504035414 45 128 0.0 0.0 0.00 0.00 0.00 83 1014.0
20260504034914 46 128 0.0 0.0 0.00 0.00 0.00 83 1014.4
20260504034415 44 128 0.0 0.0 0.00 0.00 0.00 82 1014.0
20260504033415 46 128 0.0 0.0 0.00 0.00 0.00 82 1014.4
20260504032915 47 128 0.0 0.0 0.00 0.00 0.00 82 1014.4
20260504031915 46 128 0.0 0.0 0.00 0.00 0.00 82 1014.4
20260504031416 45 128 0.0 0.0 0.00 0.00 0.00 82 1014.4
20260504030416 45 128 0.0 0.0 0.00 0.00 0.00 81 1014.4
20260504025916 47 128 0.0 0.0 0.00 0.00 0.00 80 1014.4
20260504025416 47 128 0.0 0.0 0.00 0.00 0.00 80 1014.4
20260504024417 48 128 0.0 0.0 0.00 0.00 0.00 79 1014.7
20260504023417 48 128 0.0 0.0 0.00 0.00 0.00 79 1014.7
20260504022917 47 128 0.0 0.0 0.00 0.00 0.00 79 1014.4
20260504022417 47 128 0.0 0.0 0.00 0.00 0.00 78 1014.4
20260504021917 48 128 0.0 0.0 0.00 0.00 0.00 78 1014.7
20260504021417 48 128 0.0 0.0 0.00 0.00 0.00 78 1014.7
20260504015419 49 128 0.0 0.0 0.00 0.00 0.00 76 1014.4
20260504014918 48 128 0.0 0.0 0.00 0.00 0.00 76 1014.4
20260504014418 50 128 0.0 0.0 0.00 0.00 0.00 75 1014.4
20260504012919 50 128 0.0 0.0 0.00 0.00 0.00 73 1014.4
20260504012419 51 128 0.0 0.0 0.00 0.00 0.00 73 1014.4
20260504011919 51 128 0.0 0.0 0.00 0.00 0.00 73 1014.0
20260504011419 50 128 0.0 0.0 0.00 0.00 0.00 72 1014.0
20260504010420 51 128 0.0 0.0 0.00 0.00 0.00 71 1014.4
20260504005919 52 128 0.0 0.0 0.00 0.00 0.00 70 1014.0
20260504005420 52 128 0.0 0.0 0.00 0.00 0.00 70 1014.0
20260504004920 52 128 0.0 0.0 0.00 0.00 0.00 68 1014.4
20260504004420 53 128 0.0 0.0 0.00 0.00 0.00 68 1014.0
20260504003420 51 128 0.0 0.0 0.00 0.00 0.00 67 1014.0
20260504002920 52 128 0.0 0.0 0.00 0.00 0.00 66 1014.0
20260504002420 52 128 0.0 0.0 0.00 0.00 0.00 66 1014.0
20260504001921 53 128 0.0 0.0 0.00 0.00 0.00 66 1014.0
20260504001421 54 128 0.0 0.0 0.00 0.00 0.00 65 1014.0
20260504000423 53 128 0.0 0.0 0.00 0.00 0.00 65 1014.0
20260503235921 51 128 0.0 0.0 0.00 0.00 0.00 65 1014.0
20260503234921 54 128 0.0 0.0 0.00 0.00 0.00 64 1014.0
20260503234423 54 128 0.0 0.0 0.00 0.00 0.00 64 1014.0
20260503233422 54 128 0.0 0.0 0.00 0.00 0.00 64 1014.0
20260503232922 55 128 0.0 0.0 0.00 0.00 0.00 63 1014.0
20260503232422 54 128 0.0 0.0 0.00 0.00 0.00 63 1013.7
20260503231922 55 128 0.0 0.0 0.00 0.00 0.00 63 1014.0
20260503231423 55 128 0.0 0.0 0.00 0.00 0.00 63 1014.0
20260503230423 55 128 0.0 0.0 0.00 0.00 0.00 61 1014.0
20260503225923 56 128 0.0 0.0 0.00 0.00 0.00 61 1014.0
20260503225422 55 128 0.0 0.0 0.00 0.00 0.00 62 1013.7
20260503224923 55 128 0.0 0.0 0.00 0.00 0.00 61 1013.7
20260503224423 56 128 0.0 0.0 0.00 0.00 0.00 61 1013.7
20260503223423 56 128 0.0 0.0 0.00 0.00 0.00 61 1013.7
20260503222923 55 128 0.0 0.0 0.00 0.00 0.00 61 1013.7
20260503221424 57 128 0.0 0.0 0.00 0.00 0.00 61 1013.7
20260503220425 57 128 0.0 0.0 0.00 0.00 0.00 61 1013.7
20260503215925 55 128 0.0 0.0 0.00 0.00 0.00 61 1013.7
20260503215425 57 128 0.0 0.0 0.00 0.00 0.00 60 1013.7
20260503214925 57 128 0.0 0.0 0.00 0.00 0.00 60 1014.0
20260503214424 57 128 0.0 0.0 0.00 0.00 0.00 60 1013.7
20260503213425 56 128 0.0 0.0 0.00 0.00 0.00 60 1013.7
20260503212925 57 128 0.0 0.0 0.00 0.00 0.00 61 1014.0
20260503212426 56 128 0.0 0.0 0.00 0.00 0.00 61 1014.0
20260503211926 56 128 0.0 0.0 0.00 0.00 0.00 59 1014.0
20260503211425 58 128 0.0 0.0 0.00 0.00 0.00 60 1014.0
20260503210428 58 128 0.0 0.0 0.00 0.00 0.00 61 1014.0
20260503205926 57 128 0.0 0.0 0.00 0.00 0.00 61 1014.0
20260503204927 58 128 0.0 0.0 0.00 0.00 0.00 61 1014.0
20260503204427 58 128 0.0 0.0 0.00 0.00 0.00 60 1014.0
20260503203928 57 128 0.0 0.0 0.00 0.00 0.00 61 1014.0
20260503203427 58 128 0.0 0.0 0.00 0.00 0.00 60 1014.0
20260503202927 59 128 0.0 0.0 0.00 0.00 0.00 60 1014.0
20260503201928 59 128 0.0 0.0 0.00 0.00 0.00 59 1014.4
20260503200428 59 128 0.0 0.0 0.00 0.00 0.00 61 1014.4
20260503195928 59 128 0.0 0.0 0.00 0.00 0.00 59 1014.7
20260503194429 58 128 0.0 0.0 0.00 0.00 0.00 61 1014.7
20260503193928 57 128 0.0 0.0 0.00 0.00 0.00 62 1014.7
20260503193430 57 128 0.0 0.0 0.00 0.00 0.00 61 1014.7
20260503192929 57 128 0.0 0.0 0.00 0.00 0.00 59 1014.7
20260503192429 59 128 0.0 0.0 0.00 0.00 0.00 60 1014.7
20260503191928 58 128 0.0 0.0 0.00 0.00 0.00 61 1014.7
20260503191429 59 128 0.0 0.0 0.00 0.00 0.00 59 1014.7
20260503185929 59 128 0.0 0.0 0.00 0.00 0.00 61 1015.0
20260503185430 58 128 0.0 0.0 0.00 0.00 0.00 60 1015.0
20260503184429 59 128 0.0 0.0 0.00 0.00 0.00 62 1015.0
20260503182930 57 128 0.0 0.0 0.00 0.00 0.00 62 1015.4
20260503182431 57 128 0.0 0.0 0.00 0.00 0.00 62 1015.4
20260503181931 57 128 0.0 0.0 0.00 0.00 0.00 61 1015.4
20260503181431 58 128 0.0 0.0 0.00 0.00 0.00 62 1015.4
20260503180432 59 128 0.0 0.0 0.00 0.00 0.00 61 1015.4
20260503175932 59 128 0.0 0.0 0.00 0.00 0.00 62 1015.4
20260503174932 57 128 0.0 0.0 0.00 0.00 0.00 63 1015.4
20260503174432 57 128 0.0 0.0 0.00 0.00 0.00 62 1015.4
20260503173433 58 128 0.0 0.0 0.00 0.00 0.00 61 1015.4
20260503172933 57 128 0.0 0.0 0.00 0.00 0.00 62 1015.4
20260503172433 57 128 0.0 0.0 0.00 0.00 0.00 64 1015.4
20260503171932 55 128 0.0 0.0 0.00 0.00 0.00 62 1015.4
20260503171432 58 128 0.0 0.0 0.00 0.00 0.00 58 1015.7
20260503170433 56 128 0.0 0.0 0.00 0.00 0.00 65 1015.7
20260503150937 54 128 0.0 0.0 0.00 0.00 0.00 64 1016.4
20260503150438 53 128 0.0 0.0 0.00 0.00 0.00 66 1016.4
20260503130440 49 128 0.0 0.0 0.00 0.00 0.00 76 1016.1
20260503090448 36 128 0.0 0.0 0.00 0.00 0.00 94 1014.7
20260503081449 36 128 0.0 0.0 0.00 0.00 0.00 93 1014.4
20260503080449 36 128 0.0 0.0 0.00 0.00 0.00 93 1014.4
20260503072452 35 128 0.0 0.0 0.00 0.00 0.00 92 1014.0
20260503071951 36 128 0.0 0.0 0.00 0.00 0.00 92 1014.0
20260503071451 37 128 0.0 0.0 0.00 0.00 0.00 92 1014.0
20260503070451 36 128 0.0 0.0 0.00 0.00 0.00 92 1014.0
20260503054953 39 128 0.0 0.0 0.00 0.00 0.00 91 1014.0
20260503054453 39 128 0.0 0.0 0.00 0.00 0.00 91 1014.0